Time,TemperatureF,DewpointF,PressureIn,WindDirection,WindDirectionDegrees,WindSpeedMPH,WindSpeedGustMPH,Humidity,HourlyPrecipIn,Conditions,Clouds,dailyrainin,SoftwareType,DateUTC
2013-03-30 00:00:00,64.2,46.8,30.15,ENE,68,0.0,0.0,53,0.00,,---,0.00,VWS V13.01,2013-03-30 04:00:00,
2013-03-30 00:05:00,64.0,46.6,30.15,ENE,68,0.0,0.0,53,0.00,,---,0.00,VWS V13.01,2013-03-30 04:05:00,
2013-03-30 00:10:00,64.2,46.8,30.15,ENE,68,0.0,0.0,53,0.00,,---,0.00,VWS V13.01,2013-03-30 04:10:00,
2013-03-30 00:15:00,64.0,46.6,30.15,ENE,68,0.0,0.0,53,0.00,,---,0.00,VWS V13.01,2013-03-30 04:15:00,
2013-03-30 00:20:00,63.9,46.4,30.15,ENE,68,0.0,0.0,53,0.00,,---,0.00,VWS V13.01,2013-03-30 04:20:00,
2013-03-30 00:25:00,64.0,46.6,30.15,ENE,68,0.0,0.0,53,0.00,,---,0.00,VWS V13.01,2013-03-30 04:25:00,
2013-03-30 00:30:00,63.9,46.9,30.15,ENE,68,0.0,0.0,54,0.00,,---,0.00,VWS V13.01,2013-03-30 04:30:00,
2013-03-30 00:35:00,63.5,46.6,30.15,ENE,68,0.0,0.0,54,0.00,,---,0.00,VWS V13.01,2013-03-30 04:35:00,
2013-03-30 00:40:00,63.7,46.7,30.15,ENE,68,0.0,0.0,54,0.00,,---,0.00,VWS V13.01,2013-03-30 04:40:00,
2013-03-30 00:45:00,63.5,46.6,30.15,ENE,68,0.0,0.0,54,0.00,,---,0.00,VWS V13.01,2013-03-30 04:45:00,
2013-03-30 00:50:00,63.5,46.6,30.15,ENE,68,0.0,0.0,54,0.00,,---,0.00,VWS V13.01,2013-03-30 04:50:00,
2013-03-30 00:55:00,63.3,46.4,30.14,ENE,68,0.0,0.0,54,0.00,,---,0.00,VWS V13.01,2013-03-30 04:55:00,
2013-03-30 01:00:00,63.1,46.7,30.14,ENE,68,0.0,0.0,55,0.00,,---,0.00,VWS V13.01,2013-03-30 05:00:00,
2013-03-30 01:05:00,63.1,46.7,30.14,ENE,68,0.0,0.0,55,0.00,,---,0.00,VWS V13.01,2013-03-30 05:05:00,
2013-03-30 01:10:00,63.0,46.6,30.14,ENE,68,0.0,0.0,55,0.00,,---,0.00,VWS V13.01,2013-03-30 05:10:00,
2013-03-30 01:15:00,62.4,46.1,30.14,ENE,68,0.0,0.0,55,0.00,,---,0.00,VWS V13.01,2013-03-30 05:15:00,
2013-03-30 01:20:00,62.2,45.9,30.14,ENE,68,0.0,0.0,55,0.00,,---,0.00,VWS V13.01,2013-03-30 05:20:00,
2013-03-30 01:25:00,62.1,45.7,30.14,ENE,68,0.0,0.0,55,0.00,,---,0.00,VWS V13.01,2013-03-30 05:25:00,
2013-03-30 01:30:00,61.7,45.4,30.14,ENE,68,0.0,0.0,55,0.00,,---,0.00,VWS V13.01,2013-03-30 05:30:00,
2013-03-30 01:35:00,61.7,45.4,30.14,ENE,68,0.0,0.0,55,0.00,,---,0.00,VWS V13.01,2013-03-30 05:35:00,
2013-03-30 01:40:00,61.5,45.2,30.14,ENE,68,0.0,0.0,55,0.00,,---,0.00,VWS V13.01,2013-03-30 05:40:00,
2013-03-30 01:45:00,61.3,45.0,30.13,ENE,68,0.0,0.0,55,0.00,,---,0.00,VWS V13.01,2013-03-30 05:45:00,
2013-03-30 01:50:00,61.2,46.3,30.13,ENE,68,0.0,0.0,58,0.00,,---,0.00,VWS V13.01,2013-03-30 05:50:00,
2013-03-30 01:55:00,61.0,46.1,30.13,ENE,68,0.0,0.0,58,0.00,,---,0.00,VWS V13.01,2013-03-30 05:55:00,
2013-03-30 02:00:00,61.0,46.1,30.13,ENE,68,0.0,0.0,58,0.00,,---,0.00,VWS V13.01,2013-03-30 06:00:00,
2013-03-30 02:05:00,61.0,46.1,30.13,ENE,68,0.0,0.0,58,0.00,,---,0.00,VWS V13.01,2013-03-30 06:05:00,
2013-03-30 02:10:00,60.4,45.6,30.13,ENE,68,0.0,0.0,58,0.00,,---,0.00,VWS V13.01,2013-03-30 06:10:00,
2013-03-30 02:15:00,60.3,45.4,30.13,ENE,68,0.0,0.0,58,0.00,,---,0.00,VWS V13.01,2013-03-30 06:15:00,
2013-03-30 02:20:00,60.3,45.4,30.13,ENE,68,0.0,0.0,58,0.00,,---,0.00,VWS V13.01,2013-03-30 06:20:00,
2013-03-30 02:25:00,60.1,45.3,30.13,ENE,68,0.0,0.0,58,0.00,,---,0.00,VWS V13.01,2013-03-30 06:25:00,
2013-03-30 02:30:00,59.9,45.1,30.13,ENE,68,0.0,0.0,58,0.00,,---,0.00,VWS V13.01,2013-03-30 06:30:00,
2013-03-30 02:35:00,59.9,45.1,30.12,ENE,68,0.0,0.0,58,0.00,,---,0.00,VWS V13.01,2013-03-30 06:35:00,
2013-03-30 02:40:00,59.9,45.1,30.12,ENE,68,0.0,0.0,58,0.00,,---,0.00,VWS V13.01,2013-03-30 06:40:00,
2013-03-30 02:45:00,59.7,47.5,30.12,ENE,68,0.0,0.0,64,0.00,,---,0.00,VWS V13.01,2013-03-30 06:45:00,
2013-03-30 02:50:00,59.7,47.5,30.12,ENE,68,0.0,0.0,64,0.00,,---,0.00,VWS V13.01,2013-03-30 06:50:00,
2013-03-30 02:55:00,59.4,47.2,30.12,ENE,68,0.0,0.0,64,0.00,,---,0.00,VWS V13.01,2013-03-30 06:55:00,
2013-03-30 03:00:00,59.4,47.2,30.12,ENE,68,0.0,0.0,64,0.00,,---,0.00,VWS V13.01,2013-03-30 07:00:00,
2013-03-30 03:05:00,59.4,47.2,30.12,ENE,68,0.0,0.0,64,0.00,,---,0.00,VWS V13.01,2013-03-30 07:05:00,
2013-03-30 03:10:00,59.4,47.2,30.12,ENE,68,0.0,0.0,64,0.00,,---,0.00,VWS V13.01,2013-03-30 07:10:00,
2013-03-30 03:15:00,58.8,46.7,30.12,ENE,68,0.0,0.0,64,0.00,,---,0.00,VWS V13.01,2013-03-30 07:15:00,
2013-03-30 03:20:00,58.8,46.7,30.12,ENE,68,0.0,0.0,64,0.00,,---,0.00,VWS V13.01,2013-03-30 07:20:00,
2013-03-30 03:25:00,58.8,46.7,30.12,ENE,68,0.0,0.0,64,0.00,,---,0.00,VWS V13.01,2013-03-30 07:25:00,
2013-03-30 03:30:00,58.6,47.7,30.12,ENE,68,0.0,0.0,67,0.00,,---,0.00,VWS V13.01,2013-03-30 07:30:00,
2013-03-30 03:35:00,58.6,47.7,30.12,ENE,68,0.0,0.0,67,0.00,,---,0.00,VWS V13.01,2013-03-30 07:35:00,
2013-03-30 03:40:00,58.6,47.7,30.12,ENE,68,0.0,0.0,67,0.00,,---,0.00,VWS V13.01,2013-03-30 07:40:00,
2013-03-30 03:45:00,58.5,47.6,30.12,ENE,68,0.0,0.0,67,0.00,,---,0.00,VWS V13.01,2013-03-30 07:45:00,
2013-03-30 03:50:00,58.5,47.6,30.12,ENE,68,0.0,0.0,67,0.00,,---,0.00,VWS V13.01,2013-03-30 07:50:00,
2013-03-30 03:55:00,58.1,47.2,30.12,ENE,68,0.0,0.0,67,0.00,,---,0.00,VWS V13.01,2013-03-30 07:55:00,
2013-03-30 04:00:00,58.1,47.2,30.13,ENE,68,0.0,0.0,67,0.00,,---,0.00,VWS V13.01,2013-03-30 08:00:00,
2013-03-30 04:05:00,58.1,47.2,30.13,ENE,68,0.0,0.0,67,0.00,,---,0.00,VWS V13.01,2013-03-30 08:05:00,
2013-03-30 04:10:00,58.1,47.2,30.13,ENE,68,0.0,0.0,67,0.00,,---,0.00,VWS V13.01,2013-03-30 08:10:00,
2013-03-30 04:15:00,57.9,47.8,30.12,ENE,68,0.0,0.0,69,0.00,,---,0.00,VWS V13.01,2013-03-30 08:15:00,
2013-03-30 04:20:00,57.9,47.8,30.12,ENE,68,0.0,0.0,69,0.00,,---,0.00,VWS V13.01,2013-03-30 08:20:00,
2013-03-30 04:25:00,57.9,47.8,30.11,ENE,68,0.0,0.0,69,0.00,,---,0.00,VWS V13.01,2013-03-30 08:25:00,
2013-03-30 04:30:00,57.9,47.8,30.11,ENE,68,0.0,0.0,69,0.00,,---,0.00,VWS V13.01,2013-03-30 08:30:00,
2013-03-30 04:35:00,57.9,48.2,30.11,ENE,68,0.0,0.0,70,0.00,,---,0.00,VWS V13.01,2013-03-30 08:35:00,
2013-03-30 04:40:00,57.7,48.0,30.11,ENE,68,0.0,0.0,70,0.00,,---,0.00,VWS V13.01,2013-03-30 08:40:00,
2013-03-30 04:45:00,57.6,47.9,30.11,ENE,68,0.0,0.0,70,0.00,,---,0.00,VWS V13.01,2013-03-30 08:45:00,
2013-03-30 04:50:00,57.4,47.7,30.11,ENE,68,0.0,0.0,70,0.00,,---,0.00,VWS V13.01,2013-03-30 08:50:00,
2013-03-30 04:55:00,57.6,47.9,30.12,ENE,68,0.0,0.0,70,0.00,,---,0.00,VWS V13.01,2013-03-30 08:55:00,
2013-03-30 05:00:00,57.4,48.1,30.12,ENE,68,0.0,0.0,71,0.00,,---,0.00,VWS V13.01,2013-03-30 09:00:00,
2013-03-30 05:05:00,57.4,48.1,30.12,ENE,68,0.0,0.0,71,0.00,,---,0.00,VWS V13.01,2013-03-30 09:05:00,
2013-03-30 05:10:00,57.4,48.1,30.12,ENE,68,0.0,0.0,71,0.00,,---,0.00,VWS V13.01,2013-03-30 09:10:00,
2013-03-30 05:15:00,57.4,48.1,30.12,ENE,68,0.0,0.0,71,0.00,,---,0.00,VWS V13.01,2013-03-30 09:15:00,
2013-03-30 05:20:00,57.2,47.9,30.12,ENE,68,0.0,0.0,71,0.00,,---,0.00,VWS V13.01,2013-03-30 09:20:00,
2013-03-30 05:25:00,57.2,47.9,30.12,ENE,68,0.0,0.0,71,0.00,,---,0.00,VWS V13.01,2013-03-30 09:25:00,
2013-03-30 05:30:00,57.2,47.9,30.12,ENE,68,0.0,0.0,71,0.00,,---,0.00,VWS V13.01,2013-03-30 09:30:00,
2013-03-30 05:34:00,57.2,47.9,30.12,ENE,68,0.0,0.0,71,0.00,,---,0.00,VWS V13.01,2013-03-30 09:34:00,
2013-03-30 05:39:00,57.0,47.7,30.12,ENE,68,0.0,0.0,71,0.00,,---,0.00,VWS V13.01,2013-03-30 09:39:00,
2013-03-30 05:44:00,57.0,47.7,30.12,ENE,68,0.0,0.0,71,0.00,,---,0.00,VWS V13.01,2013-03-30 09:44:00,
2013-03-30 05:49:00,57.0,47.7,30.12,ENE,68,0.0,0.0,71,0.00,,---,0.00,VWS V13.01,2013-03-30 09:49:00,
2013-03-30 05:54:00,57.0,48.5,30.12,ENE,68,0.0,0.0,73,0.00,,---,0.00,VWS V13.01,2013-03-30 09:54:00,
2013-03-30 05:59:00,56.8,48.3,30.12,ENE,68,0.0,0.0,73,0.00,,---,0.00,VWS V13.01,2013-03-30 09:59:00,
2013-03-30 06:04:00,56.8,48.3,30.12,ENE,68,0.0,0.0,73,0.00,,---,0.00,VWS V13.01,2013-03-30 10:04:00,
2013-03-30 06:09:00,56.7,48.1,30.12,ENE,68,0.0,0.0,73,0.00,,---,0.00,VWS V13.01,2013-03-30 10:09:00,
2013-03-30 06:14:00,56.7,48.1,30.12,ENE,68,0.0,0.0,73,0.00,,---,0.00,VWS V13.01,2013-03-30 10:14:00,
2013-03-30 06:19:00,56.7,48.1,30.12,ENE,68,0.0,0.0,73,0.00,,---,0.00,VWS V13.01,2013-03-30 10:19:00,
2013-03-30 06:24:00,56.7,48.1,30.12,ENE,68,0.0,0.0,73,0.00,,---,0.00,VWS V13.01,2013-03-30 10:24:00,
2013-03-30 06:29:00,56.7,48.1,30.12,ENE,68,0.0,0.0,73,0.00,,---,0.00,VWS V13.01,2013-03-30 10:29:00,
2013-03-30 06:34:00,56.8,48.3,30.12,ENE,68,0.0,0.0,73,0.00,,---,0.00,VWS V13.01,2013-03-30 10:34:00,
2013-03-30 06:39:00,56.7,48.5,30.12,ENE,68,0.0,0.0,74,0.00,,---,0.00,VWS V13.01,2013-03-30 10:39:00,
2013-03-30 06:44:00,56.7,48.5,30.12,ENE,68,0.0,0.0,74,0.00,,---,0.00,VWS V13.01,2013-03-30 10:44:00,
2013-03-30 06:49:00,56.7,48.5,30.13,ENE,68,0.0,0.0,74,0.00,,---,0.00,VWS V13.01,2013-03-30 10:49:00,
2013-03-30 06:54:00,56.7,48.5,30.13,ENE,68,0.0,0.0,74,0.00,,---,0.00,VWS V13.01,2013-03-30 10:54:00,
2013-03-30 06:59:00,56.5,48.3,30.13,ENE,68,0.0,0.0,74,0.00,,---,0.00,VWS V13.01,2013-03-30 10:59:00,
2013-03-30 07:04:00,56.5,48.3,30.13,ENE,68,0.0,0.0,74,0.00,,---,0.00,VWS V13.01,2013-03-30 11:04:00,
2013-03-30 07:09:00,56.5,48.3,30.13,ENE,68,0.0,0.0,74,0.00,,---,0.00,VWS V13.01,2013-03-30 11:09:00,
2013-03-30 07:14:00,56.3,48.8,30.13,ENE,68,0.0,0.0,76,0.00,,---,0.00,VWS V13.01,2013-03-30 11:14:00,
2013-03-30 07:19:00,56.3,48.8,30.14,ESE,112,0.0,0.0,76,0.00,,---,0.00,VWS V13.01,2013-03-30 11:19:00,
2013-03-30 07:24:00,56.3,48.8,30.14,ESE,112,0.0,0.0,76,0.00,,---,0.00,VWS V13.01,2013-03-30 11:24:00,
2013-03-30 07:29:00,56.5,49.0,30.14,ESE,112,0.0,0.0,76,0.00,,---,0.00,VWS V13.01,2013-03-30 11:29:00,
2013-03-30 07:34:00,56.7,49.5,30.14,ESE,112,0.0,0.0,77,0.00,,---,0.00,VWS V13.01,2013-03-30 11:34:00,
2013-03-30 07:39:00,56.7,49.5,30.15,ESE,112,0.0,0.0,77,0.00,,---,0.00,VWS V13.01,2013-03-30 11:39:00,
2013-03-30 07:44:00,56.8,49.7,30.14,ESE,112,0.0,0.0,77,0.00,,---,0.00,VWS V13.01,2013-03-30 11:44:00,
2013-03-30 07:49:00,57.0,49.9,30.15,ESE,112,0.0,0.0,77,0.00,,---,0.00,VWS V13.01,2013-03-30 11:49:00,
2013-03-30 07:54:00,57.4,50.2,30.15,East,90,0.0,0.0,77,0.00,,---,0.00,VWS V13.01,2013-03-30 11:54:00,
2013-03-30 07:59:00,57.6,50.8,30.15,East,90,0.0,0.0,78,0.00,,---,0.00,VWS V13.01,2013-03-30 11:59:00,
2013-03-30 08:04:00,57.9,51.1,30.15,East,90,0.0,0.0,78,0.00,,---,0.00,VWS V13.01,2013-03-30 12:04:00,
2013-03-30 08:09:00,58.5,51.3,30.15,East,90,0.0,0.0,77,0.00,,---,0.00,VWS V13.01,2013-03-30 12:09:00,
2013-03-30 08:14:00,58.8,51.6,30.16,East,90,0.0,0.0,77,0.00,,---,0.00,VWS V13.01,2013-03-30 12:14:00,
2013-03-30 08:19:00,59.5,52.7,30.16,East,90,0.0,0.0,78,0.00,,---,0.00,VWS V13.01,2013-03-30 12:19:00,
2013-03-30 08:24:00,60.3,53.0,30.16,East,90,0.0,0.0,77,0.00,,---,0.00,VWS V13.01,2013-03-30 12:24:00,
2013-03-30 08:29:00,61.0,53.7,30.16,East,90,0.0,0.0,77,0.00,,---,0.00,VWS V13.01,2013-03-30 12:29:00,
2013-03-30 08:34:00,61.9,54.2,30.17,East,90,0.0,0.0,76,0.00,,---,0.00,VWS V13.01,2013-03-30 12:34:00,
2013-03-30 08:39:00,62.8,54.8,30.17,East,90,0.0,0.0,75,0.00,,---,0.00,VWS V13.01,2013-03-30 12:39:00,
2013-03-30 08:44:00,63.7,54.9,30.17,East,90,0.0,0.0,73,0.00,,---,0.00,VWS V13.01,2013-03-30 12:44:00,
2013-03-30 08:49:00,64.8,55.5,30.17,ENE,68,0.0,1.8,72,0.00,,---,0.00,VWS V13.01,2013-03-30 12:49:00,
2013-03-30 08:54:00,65.3,55.3,30.17,ENE,68,0.0,1.8,70,0.00,,---,0.00,VWS V13.01,2013-03-30 12:54:00,
2013-03-30 08:59:00,66.4,55.5,30.17,ENE,68,0.0,1.8,68,0.00,,---,0.00,VWS V13.01,2013-03-30 12:59:00,
2013-03-30 09:04:00,67.3,54.7,30.17,NE,45,0.0,2.7,64,0.00,,---,0.00,VWS V13.01,2013-03-30 13:04:00,
2013-03-30 09:09:00,68.0,53.6,30.17,NE,45,2.7,2.9,60,0.00,,---,0.00,VWS V13.01,2013-03-30 13:09:00,
2013-03-30 09:14:00,68.7,52.4,30.17,East,90,2.0,3.1,56,0.00,,---,0.00,VWS V13.01,2013-03-30 13:14:00,
2013-03-30 09:19:00,69.1,51.8,30.17,East,90,4.5,4.5,54,0.00,,---,0.00,VWS V13.01,2013-03-30 13:19:00,
2013-03-30 09:24:00,69.4,51.1,30.17,ENE,68,0.0,4.7,52,0.00,,---,0.00,VWS V13.01,2013-03-30 13:24:00,
2013-03-30 09:29:00,70.2,50.7,30.17,NE,45,2.9,4.7,50,0.00,,---,0.00,VWS V13.01,2013-03-30 13:29:00,
2013-03-30 09:34:00,70.5,49.9,30.17,ENE,68,0.0,8.1,48,0.00,,---,0.00,VWS V13.01,2013-03-30 13:34:00,
2013-03-30 09:39:00,70.9,49.1,30.17,SE,135,3.1,8.1,46,0.00,,---,0.00,VWS V13.01,2013-03-30 13:39:00,
2013-03-30 09:44:00,71.2,48.2,30.17,East,90,0.0,8.1,44,0.00,,---,0.00,VWS V13.01,2013-03-30 13:44:00,
2013-03-30 09:49:00,71.4,47.8,30.17,SE,135,3.1,8.1,43,0.00,,---,0.00,VWS V13.01,2013-03-30 13:49:00,
2013-03-30 09:54:00,71.2,47.6,30.17,East,90,1.1,8.3,43,0.00,,---,0.00,VWS V13.01,2013-03-30 13:54:00,
2013-03-30 09:59:00,71.8,48.1,30.17,ENE,68,6.0,8.3,43,0.00,,---,0.00,VWS V13.01,2013-03-30 13:59:00,
2013-03-30 10:04:00,72.0,48.3,30.17,ENE,68,1.8,5.1,43,0.00,,---,0.00,VWS V13.01,2013-03-30 14:04:00,
2013-03-30 10:09:00,72.0,47.6,30.17,SE,135,1.3,8.3,42,0.00,,---,0.00,VWS V13.01,2013-03-30 14:09:00,
2013-03-30 10:14:00,72.3,47.3,30.17,ESE,112,2.5,8.3,41,0.00,,---,0.00,VWS V13.01,2013-03-30 14:14:00,
2013-03-30 10:19:00,72.5,47.5,30.17,SE,135,2.2,8.3,41,0.00,,---,0.00,VWS V13.01,2013-03-30 14:19:00,
2013-03-30 10:24:00,72.5,46.8,30.17,ENE,68,1.8,8.3,40,0.00,,---,0.00,VWS V13.01,2013-03-30 14:24:00,
2013-03-30 10:29:00,72.3,46.0,30.17,East,90,7.4,8.3,39,0.00,,---,0.00,VWS V13.01,2013-03-30 14:29:00,
2013-03-30 10:34:00,72.3,46.0,30.17,ENE,68,1.3,8.7,39,0.00,,---,0.00,VWS V13.01,2013-03-30 14:34:00,
2013-03-30 10:39:00,72.9,45.8,30.17,SE,135,2.2,8.7,38,0.00,,---,0.00,VWS V13.01,2013-03-30 14:39:00,
2013-03-30 10:44:00,73.0,45.2,30.17,ENE,68,3.1,8.7,37,0.00,,---,0.00,VWS V13.01,2013-03-30 14:44:00,
2013-03-30 10:49:00,73.4,45.6,30.17,SSE,158,6.5,8.7,37,0.00,,---,0.00,VWS V13.01,2013-03-30 14:49:00,
2013-03-30 10:54:00,73.6,45.7,30.17,ENE,68,6.7,8.7,37,0.00,,---,0.00,VWS V13.01,2013-03-30 14:54:00,
2013-03-30 10:59:00,73.8,45.2,30.17,ESE,112,1.6,8.7,36,0.00,,---,0.00,VWS V13.01,2013-03-30 14:59:00,
2013-03-30 11:04:00,73.6,45.0,30.17,East,90,6.0,6.0,36,0.00,,---,0.00,VWS V13.01,2013-03-30 15:04:00,
2013-03-30 11:09:00,73.6,45.0,30.17,ESE,112,0.0,6.9,36,0.00,,---,0.00,VWS V13.01,2013-03-30 15:09:00,
2013-03-30 11:14:00,73.8,45.9,30.17,ESE,112,4.5,8.1,37,0.00,,---,0.00,VWS V13.01,2013-03-30 15:14:00,
2013-03-30 11:19:00,73.4,44.1,30.17,ENE,68,2.5,9.8,35,0.00,,---,0.00,VWS V13.01,2013-03-30 15:19:00,
2013-03-30 11:24:00,73.2,43.2,30.17,East,90,4.9,9.8,34,0.00,,---,0.00,VWS V13.01,2013-03-30 15:24:00,
2013-03-30 11:29:00,73.0,43.8,30.17,ESE,112,2.5,9.8,35,0.00,,---,0.00,VWS V13.01,2013-03-30 15:29:00,
2013-03-30 11:34:00,73.8,44.4,30.17,East,90,2.5,9.8,35,0.00,,---,0.00,VWS V13.01,2013-03-30 15:34:00,
2013-03-30 11:39:00,74.1,44.8,30.17,East,90,6.0,9.8,35,0.00,,---,0.00,VWS V13.01,2013-03-30 15:39:00,
2013-03-30 11:44:00,74.3,44.1,30.17,ENE,68,2.9,9.8,34,0.00,,---,0.00,VWS V13.01,2013-03-30 15:44:00,
2013-03-30 11:49:00,74.7,42.9,30.17,NE,45,7.4,9.8,32,0.00,,---,0.00,VWS V13.01,2013-03-30 15:49:00,
2013-03-30 11:54:00,74.7,42.0,30.17,ESE,112,2.5,9.8,31,0.00,,---,0.00,VWS V13.01,2013-03-30 15:54:00,
2013-03-30 11:59:00,74.8,42.2,30.17,SE,135,5.6,9.8,31,0.00,,---,0.00,VWS V13.01,2013-03-30 15:59:00,
2013-03-30 12:04:00,75.4,42.7,30.17,ESE,112,2.0,5.8,31,0.00,,---,0.00,VWS V13.01,2013-03-30 16:04:00,
2013-03-30 12:09:00,75.4,42.7,30.17,East,90,0.0,7.2,31,0.00,,---,0.00,VWS V13.01,2013-03-30 16:09:00,
2013-03-30 12:14:00,75.4,41.8,30.17,ENE,68,4.3,10.1,30,0.00,,---,0.00,VWS V13.01,2013-03-30 16:14:00,
2013-03-30 12:19:00,75.0,40.6,30.17,ENE,68,6.0,10.1,29,0.00,,---,0.00,VWS V13.01,2013-03-30 16:19:00,
2013-03-30 12:24:00,75.0,41.5,30.17,ESE,112,0.0,10.1,30,0.00,,---,0.00,VWS V13.01,2013-03-30 16:24:00,
2013-03-30 12:29:00,75.6,42.8,30.17,SE,135,2.9,10.1,31,0.00,,---,0.00,VWS V13.01,2013-03-30 16:29:00,
2013-03-30 12:34:00,76.1,41.6,30.17,SSE,158,1.8,10.1,29,0.00,,---,0.00,VWS V13.01,2013-03-30 16:34:00,
2013-03-30 12:39:00,76.1,40.7,30.16,ENE,68,2.7,10.1,28,0.00,,---,0.00,VWS V13.01,2013-03-30 16:39:00,
2013-03-30 12:44:00,76.6,41.1,30.16,ESE,112,2.7,10.1,28,0.00,,---,0.00,VWS V13.01,2013-03-30 16:44:00,
2013-03-30 12:49:00,76.6,41.1,30.16,NE,45,0.0,10.1,28,0.00,,---,0.00,VWS V13.01,2013-03-30 16:49:00,
2013-03-30 12:54:00,76.6,40.2,30.16,ENE,68,0.0,10.1,27,0.00,,---,0.00,VWS V13.01,2013-03-30 16:54:00,
2013-03-30 12:59:00,77.2,40.7,30.15,ESE,112,3.4,10.1,27,0.00,,---,0.00,VWS V13.01,2013-03-30 16:59:00,
2013-03-30 13:04:00,77.2,41.6,30.15,NE,45,3.6,10.3,28,0.00,,---,0.00,VWS V13.01,2013-03-30 17:04:00,
2013-03-30 13:09:00,77.4,41.7,30.14,East,90,8.3,10.3,28,0.00,,---,0.00,VWS V13.01,2013-03-30 17:09:00,
2013-03-30 13:14:00,77.5,41.9,30.15,East,90,0.0,10.3,28,0.00,,---,0.00,VWS V13.01,2013-03-30 17:14:00,
2013-03-30 13:19:00,76.8,41.3,30.14,NE,45,5.4,10.3,28,0.00,,---,0.00,VWS V13.01,2013-03-30 17:19:00,
2013-03-30 13:24:00,77.2,41.6,30.14,SE,135,9.8,10.3,28,0.00,,---,0.00,VWS V13.01,2013-03-30 17:24:00,
2013-03-30 13:29:00,77.0,41.4,30.14,NE,45,7.2,11.6,28,0.00,,---,0.00,VWS V13.01,2013-03-30 17:29:00,
2013-03-30 13:34:00,77.0,41.4,30.14,East,90,4.0,11.6,28,0.00,,---,0.00,VWS V13.01,2013-03-30 17:34:00,
2013-03-30 13:39:00,77.5,41.9,30.14,SE,135,2.0,11.6,28,0.00,,---,0.00,VWS V13.01,2013-03-30 17:39:00,
2013-03-30 13:44:00,77.9,42.2,30.14,ESE,112,2.9,11.6,28,0.00,,---,0.00,VWS V13.01,2013-03-30 17:44:00,
2013-03-30 13:49:00,77.5,41.0,30.14,NNE,22,0.0,11.6,27,0.00,,---,0.00,VWS V13.01,2013-03-30 17:49:00,
2013-03-30 13:54:00,77.5,43.7,30.13,SSE,158,0.0,11.6,30,0.00,,---,0.00,VWS V13.01,2013-03-30 17:54:00,
2013-03-30 13:59:00,78.1,44.2,30.13,ESE,112,6.7,11.6,30,0.00,,---,0.00,VWS V13.01,2013-03-30 17:59:00,
2013-03-30 14:04:00,78.4,44.5,30.13,East,90,6.5,6.5,30,0.00,,---,0.00,VWS V13.01,2013-03-30 18:04:00,
2013-03-30 14:09:00,78.4,44.5,30.12,NE,45,4.3,13.9,30,0.00,,---,0.00,VWS V13.01,2013-03-30 18:09:00,
2013-03-30 14:14:00,78.3,44.3,30.12,East,90,3.4,13.9,30,0.00,,---,0.00,VWS V13.01,2013-03-30 18:14:00,
2013-03-30 14:19:00,78.1,44.2,30.11,NE,45,2.0,13.9,30,0.00,,---,0.00,VWS V13.01,2013-03-30 18:19:00,
2013-03-30 14:24:00,78.3,44.3,30.12,SE,135,2.5,13.9,30,0.00,,---,0.00,VWS V13.01,2013-03-30 18:24:00,
2013-03-30 14:29:00,78.6,45.5,30.11,ESE,112,4.0,13.9,31,0.00,,---,0.00,VWS V13.01,2013-03-30 18:29:00,
2013-03-30 14:34:00,79.2,46.0,30.11,SE,135,4.9,13.9,31,0.00,,---,0.00,VWS V13.01,2013-03-30 18:34:00,
2013-03-30 14:39:00,79.3,46.1,30.11,SE,135,4.3,13.9,31,0.00,,---,0.00,VWS V13.01,2013-03-30 18:39:00,
2013-03-30 14:44:00,79.5,46.3,30.10,ESE,112,7.8,13.9,31,0.00,,---,0.00,VWS V13.01,2013-03-30 18:44:00,
2013-03-30 14:49:00,79.5,46.3,30.10,SE,135,3.6,13.9,31,0.00,,---,0.00,VWS V13.01,2013-03-30 18:49:00,
2013-03-30 14:54:00,79.5,45.4,30.10,ENE,68,3.8,13.9,30,0.00,,---,0.00,VWS V13.01,2013-03-30 18:54:00,
2013-03-30 14:59:00,78.6,43.7,30.10,East,90,5.6,13.9,29,0.00,,---,0.00,VWS V13.01,2013-03-30 18:59:00,
2013-03-30 15:04:00,77.9,43.1,30.10,SE,135,5.4,7.4,29,0.00,,---,0.00,VWS V13.01,2013-03-30 19:04:00,
2013-03-30 15:09:00,77.9,44.0,30.09,ENE,68,1.1,7.4,30,0.00,,---,0.00,VWS V13.01,2013-03-30 19:09:00,
2013-03-30 15:14:00,77.5,43.7,30.09,SE,135,3.1,10.5,30,0.00,,---,0.00,VWS V13.01,2013-03-30 19:14:00,
2013-03-30 15:19:00,77.2,44.2,30.09,ESE,112,3.1,10.5,31,0.00,,---,0.00,VWS V13.01,2013-03-30 19:19:00,
2013-03-30 15:24:00,77.5,45.4,30.09,ESE,112,5.6,10.5,32,0.00,,---,0.00,VWS V13.01,2013-03-30 19:24:00,
2013-03-30 15:29:00,78.3,46.0,30.09,NE,45,4.5,12.3,32,0.00,,---,0.00,VWS V13.01,2013-03-30 19:29:00,
2013-03-30 15:34:00,78.4,46.2,30.08,SSE,158,5.6,12.3,32,0.00,,---,0.00,VWS V13.01,2013-03-30 19:34:00,
2013-03-30 15:39:00,79.0,46.6,30.08,SSE,158,15.0,15.0,32,0.00,,---,0.00,VWS V13.01,2013-03-30 19:39:00,
2013-03-30 15:44:00,78.4,44.5,30.08,SE,135,6.7,15.0,30,0.00,,---,0.00,VWS V13.01,2013-03-30 19:44:00,
2013-03-30 15:49:00,78.6,45.5,30.08,NE,45,9.6,15.0,31,0.00,,---,0.00,VWS V13.01,2013-03-30 19:49:00,
2013-03-30 15:54:00,78.6,44.6,30.08,SE,135,5.4,15.0,30,0.00,,---,0.00,VWS V13.01,2013-03-30 19:54:00,
2013-03-30 15:59:00,78.8,45.6,30.08,SE,135,4.5,15.0,31,0.00,,---,0.00,VWS V13.01,2013-03-30 19:59:00,
2013-03-30 16:04:00,78.6,44.6,30.08,SSE,158,3.4,8.1,30,0.00,,---,0.00,VWS V13.01,2013-03-30 20:04:00,
2013-03-30 16:09:00,78.8,44.8,30.08,East,90,2.9,8.1,30,0.00,,---,0.00,VWS V13.01,2013-03-30 20:09:00,
2013-03-30 16:14:00,78.8,43.9,30.08,ENE,68,0.0,8.1,29,0.00,,---,0.00,VWS V13.01,2013-03-30 20:14:00,
2013-03-30 16:19:00,78.6,43.7,30.08,ESE,112,1.8,8.1,29,0.00,,---,0.00,VWS V13.01,2013-03-30 20:19:00,
2013-03-30 16:24:00,78.4,43.6,30.08,SE,135,10.5,10.5,29,0.00,,---,0.00,VWS V13.01,2013-03-30 20:24:00,
2013-03-30 16:29:00,78.3,43.4,30.08,ESE,112,0.0,10.5,29,0.00,,---,0.00,VWS V13.01,2013-03-30 20:29:00,
2013-03-30 16:34:00,78.1,42.4,30.08,SE,135,3.8,10.5,28,0.00,,---,0.00,VWS V13.01,2013-03-30 20:34:00,
2013-03-30 16:39:00,77.5,41.9,30.08,ENE,68,7.2,10.5,28,0.00,,---,0.00,VWS V13.01,2013-03-30 20:39:00,
2013-03-30 16:44:00,77.2,41.6,30.08,ESE,112,3.4,10.5,28,0.00,,---,0.00,VWS V13.01,2013-03-30 20:44:00,
2013-03-30 16:49:00,76.8,41.3,30.07,ENE,68,2.5,10.5,28,0.00,,---,0.00,VWS V13.01,2013-03-30 20:49:00,
2013-03-30 16:54:00,76.8,41.3,30.07,ENE,68,3.8,10.5,28,0.00,,---,0.00,VWS V13.01,2013-03-30 20:54:00,
2013-03-30 16:59:00,76.6,42.0,30.07,SE,135,1.8,10.5,29,0.00,,---,0.00,VWS V13.01,2013-03-30 20:59:00,
2013-03-30 17:04:00,77.2,43.4,30.07,ESE,112,2.9,6.5,30,0.00,,---,0.00,VWS V13.01,2013-03-30 21:04:00,
2013-03-30 17:09:00,77.2,43.4,30.07,SE,135,3.8,7.2,30,0.00,,---,0.00,VWS V13.01,2013-03-30 21:09:00,
2013-03-30 17:14:00,77.0,43.2,30.07,SE,135,4.7,7.2,30,0.00,,---,0.00,VWS V13.01,2013-03-30 21:14:00,
2013-03-30 17:19:00,76.8,43.1,30.07,East,90,4.5,7.2,30,0.00,,---,0.00,VWS V13.01,2013-03-30 21:19:00,
2013-03-30 17:24:00,76.5,42.8,30.07,SSE,158,4.3,7.2,30,0.00,,---,0.00,VWS V13.01,2013-03-30 21:24:00,
2013-03-30 17:29:00,76.1,41.6,30.07,NE,45,2.5,7.2,29,0.00,,---,0.00,VWS V13.01,2013-03-30 21:29:00,
2013-03-30 17:34:00,75.9,43.1,30.08,ESE,112,0.0,7.2,31,0.00,,---,0.00,VWS V13.01,2013-03-30 21:34:00,
2013-03-30 17:39:00,76.1,44.1,30.08,East,90,2.2,7.2,32,0.00,,---,0.00,VWS V13.01,2013-03-30 21:39:00,
2013-03-30 17:44:00,76.1,44.1,30.07,ESE,112,4.3,7.2,32,0.00,,---,0.00,VWS V13.01,2013-03-30 21:44:00,
2013-03-30 17:49:00,75.7,43.8,30.07,SSE,158,4.7,7.2,32,0.00,,---,0.00,VWS V13.01,2013-03-30 21:49:00,
2013-03-30 17:54:00,75.7,44.6,30.08,ENE,68,4.0,7.2,33,0.00,,---,0.00,VWS V13.01,2013-03-30 21:54:00,
2013-03-30 17:59:00,75.6,44.5,30.08,SSE,158,3.1,7.2,33,0.00,,---,0.00,VWS V13.01,2013-03-30 21:59:00,
2013-03-30 18:04:00,75.4,44.3,30.07,SSE,158,8.3,8.3,33,0.00,,---,0.00,VWS V13.01,2013-03-30 22:04:00,
2013-03-30 18:09:00,75.0,44.0,30.08,East,90,4.3,8.3,33,0.00,,---,0.00,VWS V13.01,2013-03-30 22:09:00,
2013-03-30 18:14:00,74.7,43.7,30.07,SE,135,3.4,8.3,33,0.00,,---,0.00,VWS V13.01,2013-03-30 22:14:00,
2013-03-30 18:19:00,74.3,44.1,30.07,ENE,68,4.0,8.3,34,0.00,,---,0.00,VWS V13.01,2013-03-30 22:19:00,
2013-03-30 18:24:00,73.8,45.2,30.08,East,90,2.5,8.3,36,0.00,,---,0.00,VWS V13.01,2013-03-30 22:24:00,
2013-03-30 18:29:00,73.6,45.0,30.08,ESE,112,3.8,8.3,36,0.00,,---,0.00,VWS V13.01,2013-03-30 22:29:00,
2013-03-30 18:34:00,73.6,45.7,30.08,ESE,112,0.0,8.3,37,0.00,,---,0.00,VWS V13.01,2013-03-30 22:34:00,
2013-03-30 18:39:00,73.6,45.7,30.08,SSE,158,2.9,8.3,37,0.00,,---,0.00,VWS V13.01,2013-03-30 22:39:00,
2013-03-30 18:44:00,73.6,45.7,30.08,East,90,0.0,8.3,37,0.00,,---,0.00,VWS V13.01,2013-03-30 22:44:00,
2013-03-30 18:49:00,73.2,45.4,30.08,ESE,112,5.1,8.3,37,0.00,,---,0.00,VWS V13.01,2013-03-30 22:49:00,
2013-03-30 18:54:00,72.7,44.9,30.08,East,90,0.7,8.3,37,0.00,,---,0.00,VWS V13.01,2013-03-30 22:54:00,
2013-03-30 18:59:00,72.5,44.8,30.08,ESE,112,0.0,8.3,37,0.00,,---,0.00,VWS V13.01,2013-03-30 22:59:00,
2013-03-30 19:04:00,72.3,45.3,30.08,SE,135,1.6,2.5,38,0.00,,---,0.00,VWS V13.01,2013-03-30 23:04:00,
2013-03-30 19:09:00,72.1,45.2,30.08,SSE,158,2.7,2.7,38,0.00,,---,0.00,VWS V13.01,2013-03-30 23:09:00,
2013-03-30 19:14:00,72.0,45.7,30.08,SE,135,4.7,4.9,39,0.00,,---,0.00,VWS V13.01,2013-03-30 23:14:00,
2013-03-30 19:19:00,71.4,45.2,30.08,SE,135,2.0,4.9,39,0.00,,---,0.00,VWS V13.01,2013-03-30 23:19:00,
2013-03-30 19:24:00,71.4,45.2,30.07,ENE,68,1.3,4.9,39,0.00,,---,0.00,VWS V13.01,2013-03-30 23:24:00,
2013-03-30 19:29:00,71.1,44.9,30.07,SE,135,0.0,5.6,39,0.00,,---,0.00,VWS V13.01,2013-03-30 23:29:00,
2013-03-30 19:34:00,70.9,45.4,30.08,ENE,68,0.0,5.6,40,0.00,,---,0.00,VWS V13.01,2013-03-30 23:34:00,
2013-03-30 19:39:00,70.7,45.2,30.08,SE,135,2.2,5.6,40,0.00,,---,0.00,VWS V13.01,2013-03-30 23:39:00,
2013-03-30 19:44:00,70.5,46.3,30.08,ESE,112,0.0,5.6,42,0.00,,---,0.00,VWS V13.01,2013-03-30 23:44:00,
2013-03-30 19:49:00,70.3,46.2,30.08,East,90,0.0,5.6,42,0.00,,---,0.00,VWS V13.01,2013-03-30 23:49:00,
2013-03-30 19:54:00,70.0,46.5,30.08,ESE,112,2.0,5.6,43,0.00,,---,0.00,VWS V13.01,2013-03-30 23:54:00,
2013-03-30 19:59:00,70.0,46.5,30.08,East,90,4.7,5.6,43,0.00,,---,0.00,VWS V13.01,2013-03-30 23:59:00,
2013-03-30 20:04:00,69.6,46.8,30.08,SE,135,0.0,2.0,44,0.00,,---,0.00,VWS V13.01,2013-03-31 00:04:00,
2013-03-30 20:09:00,69.6,46.8,30.08,NE,45,0.0,3.4,44,0.00,,---,0.00,VWS V13.01,2013-03-31 00:09:00,
2013-03-30 20:14:00,69.3,46.4,30.08,ESE,112,0.0,3.4,44,0.00,,---,0.00,VWS V13.01,2013-03-31 00:14:00,
2013-03-30 20:19:00,69.3,47.0,30.08,SE,135,0.0,3.4,45,0.00,,---,0.00,VWS V13.01,2013-03-31 00:19:00,
2013-03-30 20:24:00,69.3,47.0,30.09,SE,135,0.0,3.4,45,0.00,,---,0.00,VWS V13.01,2013-03-31 00:24:00,
2013-03-30 20:29:00,69.1,46.9,30.09,ESE,112,0.0,3.4,45,0.00,,---,0.00,VWS V13.01,2013-03-31 00:29:00,
2013-03-30 20:34:00,68.9,46.7,30.09,ESE,112,0.0,3.4,45,0.00,,---,0.00,VWS V13.01,2013-03-31 00:34:00,
2013-03-30 20:39:00,68.7,47.7,30.09,ESE,112,0.0,3.4,47,0.00,,---,0.00,VWS V13.01,2013-03-31 00:39:00,
2013-03-30 20:44:00,68.5,47.5,30.09,ESE,112,0.0,3.4,47,0.00,,---,0.00,VWS V13.01,2013-03-31 00:44:00,
2013-03-30 20:49:00,68.5,47.5,30.09,SE,135,0.0,3.4,47,0.00,,---,0.00,VWS V13.01,2013-03-31 00:49:00,
2013-03-30 20:54:00,68.4,47.9,30.09,SE,135,0.0,3.4,48,0.00,,---,0.00,VWS V13.01,2013-03-31 00:54:00,
2013-03-30 20:59:00,68.4,48.5,30.09,SE,135,0.0,3.4,49,0.00,,---,0.00,VWS V13.01,2013-03-31 00:59:00,
2013-03-30 21:04:00,68.4,49.0,30.09,SE,135,0.0,0.0,50,0.00,,---,0.00,VWS V13.01,2013-03-31 01:04:00,
2013-03-30 21:09:00,68.4,49.0,30.09,SE,135,0.0,0.0,50,0.00,,---,0.00,VWS V13.01,2013-03-31 01:09:00,
2013-03-30 21:14:00,68.2,48.8,30.09,SE,135,0.0,0.0,50,0.00,,---,0.00,VWS V13.01,2013-03-31 01:14:00,
2013-03-30 21:19:00,68.4,49.5,30.09,SE,135,0.0,0.0,51,0.00,,---,0.00,VWS V13.01,2013-03-31 01:19:00,
2013-03-30 21:24:00,68.2,49.4,30.09,SE,135,0.0,0.0,51,0.00,,---,0.00,VWS V13.01,2013-03-31 01:24:00,
2013-03-30 21:29:00,68.2,49.4,30.09,SE,135,0.0,0.0,51,0.00,,---,0.00,VWS V13.01,2013-03-31 01:29:00,
2013-03-30 21:34:00,68.0,49.2,30.09,SE,135,0.0,0.0,51,0.00,,---,0.00,VWS V13.01,2013-03-31 01:34:00,
2013-03-30 21:39:00,67.8,49.0,30.10,East,90,0.0,0.0,51,0.00,,---,0.00,VWS V13.01,2013-03-31 01:39:00,
2013-03-30 21:44:00,67.6,49.4,30.10,East,90,0.0,0.0,52,0.00,,---,0.00,VWS V13.01,2013-03-31 01:44:00,
2013-03-30 21:49:00,67.6,49.4,30.10,East,90,0.0,0.0,52,0.00,,---,0.00,VWS V13.01,2013-03-31 01:49:00,
2013-03-30 21:54:00,67.5,49.2,30.10,East,90,0.0,0.0,52,0.00,,---,0.00,VWS V13.01,2013-03-31 01:54:00,
2013-03-30 21:59:00,67.1,49.4,30.10,East,90,0.0,0.0,53,0.00,,---,0.00,VWS V13.01,2013-03-31 01:59:00,
2013-03-30 22:04:00,67.1,49.9,30.10,East,90,0.0,0.0,54,0.00,,---,0.00,VWS V13.01,2013-03-31 02:04:00,
2013-03-30 22:09:00,66.9,49.8,30.11,East,90,0.0,0.0,54,0.00,,---,0.00,VWS V13.01,2013-03-31 02:09:00,
2013-03-30 22:14:00,66.7,50.1,30.11,East,90,0.0,0.0,55,0.00,,---,0.00,VWS V13.01,2013-03-31 02:14:00,
2013-03-30 22:19:00,66.6,49.9,30.11,East,90,0.0,0.0,55,0.00,,---,0.00,VWS V13.01,2013-03-31 02:19:00,
2013-03-30 22:24:00,66.4,49.7,30.11,East,90,0.0,0.0,55,0.00,,---,0.00,VWS V13.01,2013-03-31 02:24:00,
2013-03-30 22:29:00,66.4,49.7,30.11,East,90,0.0,0.0,55,0.00,,---,0.00,VWS V13.01,2013-03-31 02:29:00,
2013-03-30 22:34:00,66.4,50.2,30.12,SE,135,0.0,0.0,56,0.00,,---,0.00,VWS V13.01,2013-03-31 02:34:00,
2013-03-30 22:39:00,66.4,50.2,30.12,SE,135,0.0,0.0,56,0.00,,---,0.00,VWS V13.01,2013-03-31 02:39:00,
2013-03-30 22:44:00,66.4,50.2,30.11,SE,135,0.0,0.0,56,0.00,,---,0.00,VWS V13.01,2013-03-31 02:44:00,
2013-03-30 22:49:00,66.2,50.1,30.12,SE,135,0.0,0.0,56,0.00,,---,0.00,VWS V13.01,2013-03-31 02:49:00,
2013-03-30 22:54:00,66.4,50.2,30.11,SE,135,0.0,0.0,56,0.00,,---,0.00,VWS V13.01,2013-03-31 02:54:00,
2013-03-30 22:59:00,66.2,50.1,30.11,SE,135,0.0,0.0,56,0.00,,---,0.00,VWS V13.01,2013-03-31 02:59:00,
2013-03-30 23:04:00,66.0,49.9,30.11,SE,135,1.6,1.6,56,0.00,,---,0.00,VWS V13.01,2013-03-31 03:04:00,
2013-03-30 23:09:00,66.0,49.9,30.11,SE,135,0.0,1.6,56,0.00,,---,0.00,VWS V13.01,2013-03-31 03:09:00,
2013-03-30 23:14:00,66.0,49.9,30.11,ESE,112,0.0,1.6,56,0.00,,---,0.00,VWS V13.01,2013-03-31 03:14:00,
2013-03-30 23:19:00,65.8,49.7,30.11,SE,135,0.0,2.9,56,0.00,,---,0.00,VWS V13.01,2013-03-31 03:19:00,
2013-03-30 23:24:00,66.0,49.9,30.11,SE,135,0.0,2.9,56,0.00,,---,0.00,VWS V13.01,2013-03-31 03:24:00,
2013-03-30 23:29:00,66.0,49.9,30.11,ESE,112,0.0,2.9,56,0.00,,---,0.00,VWS V13.01,2013-03-31 03:29:00,
2013-03-30 23:34:00,66.0,50.4,30.11,SE,135,0.0,2.9,57,0.00,,---,0.00,VWS V13.01,2013-03-31 03:34:00,
2013-03-30 23:39:00,66.2,50.1,30.11,ESE,112,0.0,2.9,56,0.00,,---,0.00,VWS V13.01,2013-03-31 03:39:00,
2013-03-30 23:44:00,66.0,49.9,30.11,ESE,112,0.0,2.9,56,0.00,,---,0.00,VWS V13.01,2013-03-31 03:44:00,
2013-03-30 23:49:00,66.0,49.9,30.10,ESE,112,0.0,2.9,56,0.00,,---,0.00,VWS V13.01,2013-03-31 03:49:00,
2013-03-30 23:54:00,66.2,50.1,30.11,ESE,112,0.0,2.9,56,0.00,,---,0.00,VWS V13.01,2013-03-31 03:54:00,
2013-03-30 23:59:00,66.0,49.9,30.10,East,90,0.0,2.9,56,0.00,,---,0.00,VWS V13.01,2013-03-31 03:59:00,